User: anonymous   Login
Location: Key Biscayne
(25.6930°N, 80.1630°W)
Time: 19:08:35
(UTC-04:00)
Language:

CZ-2D R/B - Orbit

View from above orbital plane
View from above orbital plane
View from above satellite
View from above satellite

Ground track
Ground track

The orbit data is extracted from the following two-line orbital elements,

1 28738U 05024B   15183.79637748  .00001179  00000-0  77775-4 0  9993
2 28738 097.5862 220.3275 0011291 305.9746 054.0435 15.09362885547820
Epoch (UTC): 02 July 2015 19:06:47
Eccentricity: 0.0011291
inclination: 97.5862°
perigee height: 530 km
apogee height: 546 km
right ascension of ascending node: 220.3275°
argument of perigee: 305.9746°
revolutions per day: 15.09362885
mean anomaly at epoch: 54.0435°
orbit number at epoch: 54782

The dashed part of the orbit path shows where the satellite is in the earth's shadow,  

DLR